Location: Adelaide
(34.9286°S, 138.6000°E)
Time: 19:44:31
(UTC+09:30)

ISS - Pass Details

Date: 08 February 2016
Orbit: 402 x 406 km, 51.6° (Epoch: 26 August)

Event Time Altitude Azimuth Distance (km) Brightness Sun altitude
Exits shadow 05:34:24 26° 299° (WNW) 854 -2.3 -13.3°
Maximum altitude 05:36:07 67° 221° (SW) 447 -3.2 -13.0°
Drops below altitude 10° 05:39:25 10° 138° (SE) 1,482 0.8 -12.4°
Sets 05:41:32 0° 134° (SE) 2,351 2.2 -12.0°
